SCP
1 1 0 0 1 1 2 1 1 0 0 0 0 0 0 0 0 0 0 0 0 0 0 0 0 0 0 0 0 0 0 0 0 0 0 0 0 0 0 0 0 0 0
0 0 0 0 1 1 1 1 1 0 0 0 0 0 0 0 0 0 0 0 0 0 0 0 0 0 0 0 0 0 0 0 0 0 0 0 0 0 0 0 0 0 0
0 0 0 0 0 1 1 1 1 0 0 0 0 0 0 0 0 0 0 0 0 0 0 0 0 0 0 0 0 0 0 0 0 0 0 0 0 0 0 0 0 0 0
0 0 0 0 0 0 1 1 1 0 0 0 0 0 0 0 0 0 0 0 0 0 0 0 0 0 0 0 0 0 0 0 0 0 0 0 0 0 0 0 0 0 0
0 0 0 0 0 0 0 1 1 0 0 0 0 0 0 0 0 0 0 0 0 0 0 0 0 0 0 0 0 0 0 0 0 0 0 0 0 0 0 0 0 0 0
0 0 0 0 0 0 0 0 1 0 0 0 0 0 0 0 0 0 0 0 0 0 0 0 0 0 0 0 0 0 0 0 0 0 0 0 0 0 0 0 0 0 0
0 0 0 0 0 0 0 0 0 0 0 0 0 0 0 0 0 0 0 0 0 0 0 0 0 0 0 0 0 0 0 0 0 0 0 0 0 0 0 0 0 0 0
0 0 0 0 0 0 0 0 0 0 0 0 0 0 0 0 0 0 0 0 0 0 0 0 0 0 0 0 0 0 0 0 0 0 0 0 0 0 0 0 0 0 0
0 0 0 0 0 0 0 0 0 0 0 0 0 0 0 0 0 0 0 0 0 0 0 0 0 0 0 0 0 0 0 0 0 0 0 0 0 0 0 0 0 0 0
0 0 0 0 0 0 0 0 0 0 0 0 0 0 0 0 0 0 0 0 0 0 0 0 0 0 0 0 0 0 0 0 0 0 0 0 0 0 0 0 0 0 0
0 0 0 0 0 0 0 0 1 1 1 0 0 0 0 0 0 0 0 0 0 0 0 0 0 0 0 0 0 0 0 0 0 0 0 0 0 0 0 0 0 0 0
0 0 0 0 0 0 1 1 1 1 1 0 0 0 0 0 0 0 0 0 0 0 0 0 0 0 0 0 0 0 0 0 0 0 0 0 0 0 0 0 0 0 0
0 0 0 0 1 1 1 1 1 1 0 0 0 0 0 0 0 0 0 0 0 0 0 0 0 0 0 0 0 0 0 0 0 0 0 0 0 0 0 0 0 0 0
0 0 0 1 1 1 1 1 1 0 0 0 0 0 0 0 0 0 0 0 0 0 0 0 0 0 0 0 0 0 0 0 0 0 0 0 0 0 0 0 0 0 0
0 0 0 0 0 1 0 0 0 0 0 0 0 0 0 0 0 0 0 0 0 0 0 0 0 0 0 0 0 0 0 0 0 0 0 0 0 0 0 0 0 0 0
0 0 0 0 0 0 0 0 0 0 0 0 0 0 0 0 0 0 0 0 0 0 0 0 0 0 0 0 0 0 0 0 0 0 0 0 0 0 0 0 0 0 0
0 0 0 0 0 0 0 0 0 0 0 0 0 0 0 0 0 0 0 0 0 0 0 0 0 0 0 0 0 0 0 0 0 0 0 0 0 0 0 0 0 0 0
0 0 0 0 0 0 0 0 0 0 0 0 0 0 0 0 0 0 0 0 0 0 0 0 0 0 0 0 0 0 0 0 0 0 0 0 0 0 0 0 0 0 0
0 0 0 0 0 0 0 0 0 0 0 0 0 0 0 0 0 0 0 0 0 0 0 0 0 0 0 0 0 0 0 0 0 0 0 0 0 0 0 0 0 0 0
0 0 0 0 0 0 0 0 0 0 0 0 0 0 0 0 0 0 0 0 0 0 0 0 0 0 0 0 0 0 0 0 0 0 0 0 0 0 0 0 0 0 0
0 0 0 0 0 0 0 0 0 0 0 0 0 0 0 0 0 0 0 0 0 0 0 0 0 0 0 0 0 0 0 0 0 0 0 0 0 0 0 0 0 0 0
0 0 0 0 0 0 0 0 0 0 0 0 0 0 0 0 0 0 0 0 0 0 0 0 0 0 0 0 0 0 0 0 0 0 0 0 0 0 0 0 0 0 0
0 0 0 0 0 0 0 0 0 0 0 0 0 0 0 0 0 0 0 0 0 0 0 0 0 0 0 0 0 0 0 0 0 0 0 0 0 0 0 0 0 0 0
0 0 0 0 0 0 0 0 0 0 0 0 0 0 0 0 0 0 0 0 0 0 0 0 0 0 0 0 0 0 0 0 0 0 0 0 0 0 0 0 0 0 0
0 0 0 0 0 0 0 0 0 0 0 0 0 0 0 0 0 0 0 0 0 0 0 0 0 0 0 0 0 0 0 0 0 0 0 0 0 0 0 0 0 0 0
0 0 0 0 0 0 0 0 0 0 0 0 0 0 0 0 0 0 0 0 0 0 0 0 0 0 0 0 0 0 0 0 0 0 0 0 0 0 0 0 0 0 0
Wind_Speed
1 2 1 2 2 2 2 2 2 3 3 4 4 4 4 4 4 4 3 4 4 3 3 3 3 2 2 2 2 2 2 2 3 2 1 1 2 2 2 2 2 3 3
2 1 1 1 1 2 2 2 2 3 3 3 4 4 4 4 5 5 5 5 5 5 4 4 4 3 3 3 3 3 3 2 2 3 1 1 2 3 2 2 2 2 3
2 2 2 2 2 2 2 2 3 3 3 4 4 5 5 5 5 6 6 6 6 5 5 5 5 4 4 3 4 4 3 2 2 2 2 1 1 2 2 2 2 2 3
1 2 2 2 2 2 2 2 3 3 4 4 4 5 5 5 5 6 6 6 5 5 6 6 6 6 6 5 5 5 4 3 2 2 2 2 2 2 2 2 2 2 3
1 2 3 3 2 2 2 2 2 3 4 4 4 4 4 4 5 6 6 6 6 5 5 6 6 7 7 6 5 5 5 4 3 3 3 2 2 2 3 2 3 2 3
1 2 2 2 2 2 3 3 3 3 3 3 4 4 5 5 7 8 6 5 5 5 5 5 5 6 8 9 9 8 7 6 6 5 4 5 5 4 2 3 2 2 3
2 2 2 2 2 3 3 3 4 4 3 4 4 4 5 6 8 9 9 5 5 5 5 5 4 5 7 5 7 8 8 9 9 7 6 6 5 5 4 4 4 4 4
2 2 2 2 3 2 3 4 4 4 4 4 4 4 4 5 8 9 8 5 5 5 6 6 6 5 6 6 5 4 5 6 7 5 5 5 4 4 5 5 4 3 2
2 2 3 2 2 3 3 3 3 3 4 4 4 4 5 5 8 8 7 4 4 5 5 5 5 5 8 8 5 5 5 4 5 6 6 5 6 6 5 2 2 2 3
3 3 3 3 3 3 4 4 3 3 4 4 4 4 5 5 7 8 7 4 4 4 4 5 7 7 8 9 6 6 6 5 3 3 4 4 4 5 6 5 4 4 3
2 2 3 3 3 4 3 3 3 3 3 3 3 3 4 5 6 8 8 4 4 3 3 3 4 7 8 9 7 6 7 5 4 4 3 3 2 2 3 3 3 4 4
2 3 3 3 3 3 2 2 2 2 3 3 3 3 3 4 5 6 8 6 5 4 3 3 3 6 7 7 5 5 6 5 3 3 3 3 2 2 1 1 1 1 2
2 3 3 3 2 2 2 2 2 2 2 2 2 2 2 2 3 5 6 6 6 3 3 4 5 6 5 4 4 4 4 3 3 3 3 3 2 2 1 1 1 1 1
2 2 2 2 2 2 2 2 2 2 2 2 2 2 2 2 2 2 3 3 4 3 2 3 4 4 3 2 2 2 2 2 3 3 2 2 2 2 1 1 1 1 1
2 2 2 2 1 1 2 2 2 2 3 3 3 3 3 3 4 5 3 2 2 3 3 2 2 2 2 1 1 1 1 1 2 2 2 2 2 2 1 1 1 1 2
2 2 2 2 1 1 1 1 2 3 4 5 5 5 3 4 5 5 4 4 3 4 3 3 2 2 2 2 2 1 2 2 2 2 2 2 2 2 2 1 1 2 2
2 3 2 2 1 1 1 1 1 2 3 4 4 4 3 3 3 3 3 2 3 4 3 2 2 2 2 2 2 2 2 2 2 2 2 2 2 2 2 2 1 1 1
3 3 3 2 2 1 1 1 1 1 1 1 2 2 2 1 2 2 2 1 1 1 2 2 2 2 2 2 2 2 2 1 1 2 2 2 2 2 2 2 2 2 2
2 2 2 2 2 2 1 1 1 1 1 1 1 1 1 1 2 2 1 1 2 2 1 1 2 2 2 2 2 2 2 2 2 2 2 2 2 2 2 2 2 2 2
2 4 3 2 1 1 1 1 1 1 1 1 1 1 1 0 0 0 0 1 2 2 2 2 2 2 2 2 2 2 2 2 2 2 2 2 2 2 2 2 2 2 1
2 2 4 2 1 1 1 1 1 1 1 1 1 1 2 0 1 1 1 1 1 2 2 2 2 2 2 2 2 2 2 2 2 2 2 1 1 1 1 1 1 1 1
2 1 1 1 1 1 1 1 1 0 1 1 1 2 2 0 1 1 1 1 1 1 1 2 1 1 1 2 2 2 2 2 2 2 2 2 1 1 1 1 1 1 1
1 1 1 1 1 2 2 1 1 1 1 1 1 1 1 1 1 1 1 1 1 1 1 1 1 1 1 1 1 2 3 2 2 3 3 2 2 2 2 2 2 2 2
1 1 1 1 1 1 1 1 1 1 1 1 1 1 1 0 0 0 1 1 1 1 1 1 1 2 2 1 1 1 1 2 2 3 4 3 3 2 2 2 2 2 2
1 1 1 1 1 1 1 1 1 1 1 1 1 1 1 0 0 0 0 1 1 1 1 1 1 1 2 2 1 1 3 3 3 2 3 3 3 3 3 3 2 2 2
1 1 1 1 1 1 1 1 1 1 1 1 1 1 1 1 0 0 0 0 0 0 0 1 1 1 1 1 2 3 4 4 4 4 3 3 3 3 3 2 3 2 3
Wind_Direction
215 220 225 213 196 185 187 190 186 181 173 181 194 190 188 191 186 185 192 196 193 201 198 195 207 206 195 191 190 197 213 201 227 262 265 185 182 209 236 246 249 239 238
222 227 226 224 207 196 199 200 193 190 185 187 195 197 199 203 194 191 201 204 201 202 201 198 210 209 208 200 195 204 212 212 204 231 250 230 218 209 217 235 251 250 241
223 213 221 224 216 212 212 207 204 199 192 193 195 200 205 207 202 204 205 209 209 208 204 204 208 203 211 209 201 202 208 212 207 212 232 235 245 215 207 255 258 264 260
247 216 222 229 225 217 211 216 214 207 200 200 203 206 209 213 211 209 210 210 212 214 209 206 206 205 209 207 208 204 198 199 201 212 222 221 233 228 191 216 257 254 261
249 242 233 234 232 224 213 219 222 217 216 206 204 209 211 216 216 210 209 210 211 214 210 208 209 211 214 212 218 206 196 198 200 214 221 217 216 209 213 213 234 256 267
256 260 257 239 231 226 223 216 221 224 219 212 209 209 215 226 227 223 223 211 209 210 213 215 214 210 214 219 229 225 211 205 206 211 223 221 224 217 209 212 216 234 260
262 265 262 253 248 235 230 219 221 222 218 218 216 210 219 229 233 229 229 221 214 213 211 212 219 219 218 213 227 230 225 223 217 210 218 224 218 210 200 212 219 229 243
264 266 265 255 250 248 232 225 226 220 220 223 222 217 223 238 238 232 230 221 219 216 213 209 210 213 215 210 210 218 223 225 225 220 218 222 220 208 205 212 217 234 263
263 267 268 261 256 250 246 242 233 225 225 225 226 220 223 236 240 237 233 215 219 217 215 209 207 209 221 217 207 213 225 231 229 227 231 233 229 223 212 189 196 209 251
267 274 272 262 254 253 253 253 248 237 229 225 230 222 220 226 237 240 236 219 220 222 216 210 215 219 221 218 208 206 220 217 201 218 231 236 227 220 218 205 198 208 231
283 279 271 263 256 253 252 248 245 243 229 221 229 234 224 229 236 240 240 227 212 216 218 210 212 219 223 223 222 214 222 212 196 202 208 208 204 205 212 214 204 203 214
276 275 272 266 265 266 249 250 240 223 225 220 220 236 238 236 238 240 242 238 228 212 217 211 207 212 216 216 217 214 215 210 186 191 202 202 198 203 202 198 195 205 220
270 270 272 275 273 273 258 249 238 213 211 232 219 228 249 249 237 244 244 238 239 225 211 213 213 207 206 204 204 206 204 192 183 192 201 203 195 178 148 124 92 72 14
291 290 289 281 277 273 264 254 238 219 213 221 231 233 241 248 236 231 221 225 226 220 200 199 205 197 191 178 182 200 201 187 181 187 181 168 146 149 162 172 188 188 216
309 308 310 299 285 280 273 251 250 239 226 226 223 221 230 237 243 248 243 229 200 189 162 154 156 154 161 158 162 168 169 167 172 166 167 161 162 167 179 188 201 210 218
309 311 302 297 291 283 284 307 286 269 269 262 255 249 251 252 258 251 250 245 212 175 155 156 166 170 171 174 179 182 188 185 177 169 164 167 175 181 187 190 196 205 219
296 298 293 293 290 282 279 274 307 332 313 288 273 266 260 257 249 246 243 236 209 171 152 158 166 171 175 177 181 183 188 188 174 168 166 166 173 182 184 192 194 201 221
301 299 304 299 294 289 281 281 283 288 306 321 314 298 294 280 255 247 229 204 194 176 147 156 164 165 167 168 173 174 167 166 169 169 165 166 172 177 181 191 196 192 203
306 302 303 306 302 295 291 287 281 274 277 305 341 329 313 319 315 296 251 173 164 163 153 154 156 157 162 168 173 170 163 171 173 170 177 180 179 174 180 192 195 207 209
308 310 315 317 318 320 316 303 284 272 277 283 280 280 291 333 61 347 210 159 160 155 153 160 161 157 158 167 165 157 156 166 169 165 171 175 176 173 181 191 193 198 209
311 316 323 330 330 319 311 303 284 269 273 284 293 281 273 222 159 157 164 157 157 156 158 157 154 154 159 167 158 159 162 168 170 161 163 169 165 165 172 178 181 182 182
321 319 324 329 328 321 317 318 325 323 321 326 342 338 321 13 125 149 153 143 130 131 136 138 145 162 178 178 170 169 171 175 174 163 165 171 167 165 163 163 168 180 188
320 326 335 336 329 317 330 342 341 340 345 340 341 347 350 50 79 96 103 103 99 103 113 127 140 148 144 156 172 175 180 190 190 178 174 176 173 175 172 175 182 189 206
326 333 345 341 334 327 331 341 344 344 346 344 344 339 334 355 75 91 104 112 115 120 126 135 148 157 168 174 170 170 174 180 176 177 175 173 176 177 175 180 193 199 209
350 349 341 327 327 330 334 333 330 329 329 327 330 328 330 333 247 188 133 115 118 132 151 155 151 153 168 184 195 200 208 217 213 182 165 165 172 178 182 188 195 198 209
6 4 356 353 345 337 331 327 324 323 314 312 316 313 310 306 295 196 143 132 131 141 168 176 177 185 191 192 203 217 228 229 226 222 184 166 173 180 181 191 196 201 204